When you browse on this site, cookies collect data to enhance your experience and personalize the content and advertising you see.
Visit our Privacy Policy to learn more. By continuing to use the site, you agree to this use of cookies and data.
  • In Hungary
  • List of Countries
  • For 7 days
  • Water Temperature
  • Satellite Maps
  • Weather Map
  • News
  • Weather Widgets
  • user-avatar
    Login

    Hourly Weather Anyutino

    Today, 18 November, Sunday

    Time Temperature Precipitation Wind Pressure Humidity
    00:00 +1°C° 0.2 mm 3 mps 749 mmHg 95%
    01:00 +1°C° 0.2 mm 3 mps 749 mmHg 95%
    02:00 +2°C° 0 mm 2 mps 747 mmHg 96%
    03:00 +2°C° 0.5 mm 2 mps 747 mmHg 96%
    04:00 +1°C° 0.5 mm 3 mps 747 mmHg 96%
    05:00 +1°C° 0.5 mm 3 mps 747 mmHg 96%
    06:00 +1°C° 0.3 mm 3 mps 747 mmHg 97%
    07:00 +2°C° 0.3 mm 2 mps 747 mmHg 97%
    08:00 +2°C° 0 mm 2 mps 747 mmHg 97%
    09:00 +2°C° 0.1 mm 2 mps 748 mmHg 96%
    10:00 +2°C° 0.1 mm 2 mps 748 mmHg 96%
    11:00 +2°C° 0.1 mm 2 mps 749 mmHg 95%
    12:00 +2°C° 0 mm 2 mps 749 mmHg 95%
    13:00 +2°C° 0 mm 2 mps 750 mmHg 96%
    14:00 +2°C° 0 mm 2 mps 750 mmHg 97%
    15:00 +2°C° 0 mm 2 mps 751 mmHg 96%
    16:00 +2°C° 0 mm 2 mps 751 mmHg 96%
    17:00 +2°C° 0 mm 2 mps 752 mmHg 96%
    18:00 +2°C° 0 mm 2 mps 752 mmHg 96%
    19:00 +1°C° 0 mm 3 mps 753 mmHg 96%
    20:00 +1°C° 0 mm 3 mps 753 mmHg 95%
    21:00 0°C° 0 mm 3 mps 754 mmHg 95%
    22:00 0°C° 0 mm 3 mps 754 mmHg 94%
    23:00 0°C° 0 mm 3 mps 755 mmHg 94%

    Tomorrow, 19 November, Monday

    Time Temperature Precipitation Wind Pressure Humidity
    00:00 0°C° 0 mm 3 mps 755 mmHg 93%
    01:00 0°C° 0 mm 3 mps 756 mmHg 93%
    02:00 0°C° 0 mm 3 mps 756 mmHg 92%
    03:00 -1°C° 0 mm 3 mps 756 mmHg 92%
    04:00 -1°C° 0 mm 3 mps 757 mmHg 91%
    05:00 -1°C° 0 mm 3 mps 757 mmHg 91%
    06:00 -2°C° 0 mm 3 mps 757 mmHg 90%
    07:00 -2°C° 0 mm 3 mps 758 mmHg 90%
    08:00 -4°C° 0 mm 3 mps 758 mmHg 90%
    09:00 -4°C° 0 mm 3 mps 759 mmHg 88%
    10:00 -4°C° 0 mm 3 mps 759 mmHg 87%
    11:00 -4°C° 0 mm 3 mps 759 mmHg 86%
    12:00 -4°C° 0 mm 3 mps 759 mmHg 86%
    13:00 -4°C° 0 mm 3 mps 760 mmHg 86%
    14:00 -3°C° 0 mm 2 mps 760 mmHg 85%
    15:00 -3°C° 0 mm 2 mps 760 mmHg 86%
    16:00 -4°C° 0 mm 2 mps 760 mmHg 86%
    17:00 -4°C° 0 mm 2 mps 760 mmHg 86%
    18:00 -4°C° 0 mm 2 mps 760 mmHg 87%
    19:00 -5°C° 0 mm 2 mps 760 mmHg 88%
    20:00 -3°C° 0 mm 1 mps 760 mmHg 89%
    21:00 -3°C° 0 mm 1 mps 760 mmHg 90%
    22:00 -3°C° 0 mm 1 mps 760 mmHg 91%
    23:00 -4°C° 0 mm 1 mps 760 mmHg 91%

    Day after tomorrow, 20 November, Tuesday

    Time Temperature Precipitation Wind Pressure Humidity
    00:00 -4°C° 0 mm 1 mps 760 mmHg 91%
    01:00 -4°C° 0 mm 1 mps 759 mmHg 91%
    02:00 -4°C° 0 mm 1 mps 759 mmHg 91%
    03:00 -4°C° 0 mm 1 mps 759 mmHg 91%
    04:00 -4°C° 0 mm 1 mps 759 mmHg 91%
    05:00 -4°C° 0 mm 1 mps 758 mmHg 90%
    06:00 -4°C° 0 mm 1 mps 758 mmHg 89%
    07:00 -4°C° 0 mm 1 mps 758 mmHg 89%
    08:00 -4°C° 0 mm 1 mps 757 mmHg 88%
    09:00 -3°C° 0 mm 1 mps 757 mmHg 84%
    10:00 -3°C° 0 mm 1 mps 757 mmHg 80%
    11:00 -2°C° 0 mm 1 mps 756 mmHg 76%
    12:00 -4°C° 0 mm 2 mps 756 mmHg 77%
    13:00 -3°C° 0 mm 2 mps 756 mmHg 77%
    14:00 -3°C° 0 mm 2 mps 755 mmHg 78%
    15:00 -4°C° 0 mm 2 mps 755 mmHg 80%
    16:00 -4°C° 0 mm 2 mps 754 mmHg 83%
    17:00 -5°C° 0 mm 2 mps 754 mmHg 85%
    18:00 -5°C° 0 mm 2 mps 754 mmHg 85%
    19:00 -5°C° 0 mm 2 mps 754 mmHg 86%
    20:00 -5°C° 0 mm 2 mps 753 mmHg 86%
    21:00 -5°C° 0 mm 3 mps 753 mmHg 86%
    22:00 -5°C° 0 mm 3 mps 753 mmHg 86%
    23:00 -5°C° 0 mm 3 mps 753 mmHg 87%

    21 November, Wednesday

    Time Temperature Precipitation Wind Pressure Humidity
    00:00 -4°C° 0 mm 3 mps 753 mmHg 88%
    01:00 -4°C° 0 mm 3 mps 753 mmHg 89%
    02:00 -4°C° 0 mm 3 mps 753 mmHg 91%
    03:00 -4°C° 0 mm 3 mps 753 mmHg 91%
    04:00 -4°C° 0 mm 3 mps 753 mmHg 90%
    05:00 -2°C° 0 mm 3 mps 753 mmHg 90%
    06:00 -2°C° 0 mm 3 mps 754 mmHg 90%
    07:00 -2°C° 0 mm 2 mps 754 mmHg 90%
    08:00 -3°C° 0 mm 2 mps 754 mmHg 90%
    09:00 -2°C° 0 mm 2 mps 754 mmHg 88%
    10:00 -2°C° 0 mm 2 mps 755 mmHg 85%
    11:00 -2°C° 0 mm 3 mps 755 mmHg 83%
    12:00 -2°C° 0 mm 2 mps 755 mmHg 84%
    13:00 -2°C° 0 mm 2 mps 755 mmHg 84%
    14:00 -3°C° 0 mm 2 mps 755 mmHg 85%
    15:00 -3°C° 0 mm 2 mps 755 mmHg 87%
    16:00 -4°C° 0 mm 2 mps 754 mmHg 90%
    17:00 -4°C° 0 mm 2 mps 754 mmHg 93%
    18:00 -5°C° 0 mm 2 mps 754 mmHg 92%
    19:00 -5°C° 0 mm 2 mps 754 mmHg 92%
    20:00 -6°C° 0 mm 3 mps 753 mmHg 92%
    21:00 -6°C° 0 mm 3 mps 753 mmHg 92%
    22:00 -6°C° 0 mm 3 mps 753 mmHg 92%
    23:00 -5°C° 0 mm 3 mps 752 mmHg 91%

    22 November, Thursday

    Time Temperature Precipitation Wind Pressure Humidity
    00:00 -5°C° 0 mm 3 mps 752 mmHg 91%
    01:00 -5°C° 0 mm 4 mps 752 mmHg 90%
    02:00 -4°C° 0 mm 4 mps 751 mmHg 89%
    03:00 -4°C° 0 mm 4 mps 751 mmHg 88%
    04:00 -4°C° 0 mm 4 mps 751 mmHg 86%
    05:00 -5°C° 0 mm 5 mps 750 mmHg 84%
    06:00 -5°C° 0 mm 5 mps 750 mmHg 85%
    07:00 -5°C° 0 mm 5 mps 750 mmHg 85%
    08:00 -5°C° 0 mm 5 mps 749 mmHg 85%
    09:00 -4°C° 0 mm 5 mps 749 mmHg 84%
    10:00 -4°C° 0 mm 5 mps 749 mmHg 84%
    11:00 -2°C° 0 mm 5 mps 749 mmHg 84%
    12:00 -2°C° 0 mm 5 mps 749 mmHg 84%
    13:00 -1°C° 0 mm 5 mps 749 mmHg 84%
    14:00 -1°C° 0 mm 5 mps 749 mmHg 85%
    15:00 -1°C° 0 mm 4 mps 749 mmHg 85%
    16:00 -2°C° 0 mm 4 mps 750 mmHg 86%
    17:00 -2°C° 0 mm 4 mps 750 mmHg 87%
    18:00 -1°C° 0 mm 3 mps 750 mmHg 88%
    19:00 -2°C° 0 mm 3 mps 751 mmHg 89%
    20:00 -4°C° 0 mm 3 mps 751 mmHg 90%
    21:00 -4°C° 0 mm 3 mps 752 mmHg 92%
    22:00 -3°C° 0 mm 2 mps 752 mmHg 93%
    23:00 -4°C° 0 mm 2 mps 753 mmHg 95%

    23 November, Friday

    Time Temperature Precipitation Wind Pressure Humidity
    00:00 -4°C° 0 mm 2 mps 753 mmHg 96%
    01:00 -4°C° 0 mm 2 mps 753 mmHg 96%
    02:00 -3°C° 0 mm 1 mps 753 mmHg 97%
    03:00 -5°C° 0 mm 2 mps 753 mmHg 96%
    04:00 -5°C° 0 mm 2 mps 753 mmHg 96%
    05:00 -4°C° 0 mm 2 mps 753 mmHg 96%
    06:00 -4°C° 0 mm 2 mps 753 mmHg 95%
    07:00 -5°C° 0 mm 3 mps 753 mmHg 95%
    08:00 -4°C° 0 mm 3 mps 753 mmHg 94%
    09:00 -4°C° 0 mm 3 mps 753 mmHg 92%
    10:00 -3°C° 0 mm 4 mps 753 mmHg 91%
    11:00 -2°C° 0 mm 4 mps 752 mmHg 89%
    12:00 -2°C° 0 mm 4 mps 752 mmHg 88%
    13:00 -2°C° 0 mm 4 mps 751 mmHg 87%
    14:00 -2°C° 0 mm 5 mps 750 mmHg 87%
    15:00 -2°C° 0 mm 5 mps 750 mmHg 86%
    16:00 -2°C° 0 mm 5 mps 749 mmHg 85%
    17:00 -3°C° 0 mm 6 mps 748 mmHg 84%
    18:00 -3°C° 0.1 mm 6 mps 747 mmHg 84%
    19:00 -3°C° 0.1 mm 6 mps 747 mmHg 83%
    20:00 -3°C° 0.1 mm 6 mps 746 mmHg 83%
    21:00 -3°C° 0.1 mm 6 mps 746 mmHg 83%
    22:00 -3°C° 0.1 mm 6 mps 746 mmHg 82%
    23:00 -3°C° 0.1 mm 6 mps 745 mmHg 82%
    Show more